Ely, MN

5:54 PM CDT on May 23, 2017 (GMT -0500)
Ely Municipal

Weather History for KELO - December, 2013

Change the Weather History Date:

Thursday, December 19, 2013

  Actual Average Record
Temperature  
Mean Temperature 5 °F -  
Max Temperature 12 °F 18 °F 39 °F (2006)
Min Temperature -2 °F 3 °F -29 °F (2004)
Degree Days  
Heating Degree Days 60    
Moisture  
Dew Point -3 °F    
Average Humidity 78    
Maximum Humidity 85    
Minimum Humidity 66    
Precipitation  
Precipitation 0.00 in - - ()
Sea Level Pressure  
Sea Level Pressure 30.04 in    
Wind  
Wind Speed 6 mph (North)    
Max Wind Speed 15 mph    
Max Gust Speed 24 mph    
Visibility 9 miles    
Events Snow    
Averages and records for this station are not official NWS values.
T = Trace of Precipitation, MM = Missing Value Source: NWS Daily Summary

Daily Weather History Graph

Daily Weather History Graph

Search for Another Location

Airport or City:

Trip Planner

Search our weather history database for the weather conditions in past years. The results will help you decide how hot, cold, wet, or windy it might be!

Date:

Astronomy

Dec. 19, 2013 Rise Set
Actual Time 7:52 AM CST 4:16 PM CST
Civil Twilight 7:16 AM CST 4:52 PM CST
Nautical Twilight 6:36 AM CST 5:32 PM CST
Astronomical Twilight 5:59 AM CST 6:10 PM CST
Moon 6:52 PM CST (12/19) 9:03 AM CST (12/19)
Length of Visible Light 9h 36m
Length of Day
8h 23m
Waning Gibbous, 95% of the Moon is Illuminated
Dec 19
Waning Gibbous
Dec 25
Last Quarter
Jan 1
New
Jan 7
First Quarter
Jan 15
Full

Hourly Weather History & Observations

Time (CST) Temp. Windchill Dew Point Humidity Pressure Visibility Wind Dir Wind Speed Gust Speed Precip Events Conditions
12:12 AM 12.2 °F -1.0 °F 6.8 °F 79% 29.74 in 10.0 mi NW 10.4 mph 16.1 mph N/A   Overcast
12:33 AM 10.4 °F -3.3 °F 6.8 °F 85% 29.76 in 10.0 mi NW 10.4 mph 17.3 mph N/A   Overcast
12:52 AM 10.4 °F -2.4 °F 6.8 °F 85% 29.78 in 10.0 mi NW 9.2 mph 16.1 mph N/A Snow Light Snow
1:13 AM 10.4 °F -3.3 °F 6.8 °F 85% 29.79 in 10.0 mi NW 10.4 mph - N/A Snow Light Snow
1:33 AM 10.4 °F -3.3 °F 6.8 °F 85% 29.81 in 7.0 mi NW 10.4 mph - N/A Snow Light Snow
1:52 AM 10.4 °F -2.4 °F 6.8 °F 85% 29.82 in 4.0 mi NW 9.2 mph 16.1 mph N/A Snow Light Snow
2:13 AM 10.4 °F -0.4 °F 6.8 °F 85% 29.83 in 5.0 mi NW 6.9 mph - N/A Snow Light Snow
2:33 AM 10.4 °F -4.1 °F 5.0 °F 79% 29.85 in 5.0 mi NNW 11.5 mph 21.9 mph N/A Snow Light Snow
2:52 AM 8.6 °F -8.3 °F 3.2 °F 79% 29.85 in 4.0 mi NW 15.0 mph 24.2 mph N/A Snow Light Snow
3:13 AM 8.6 °F -3.7 °F 3.2 °F 79% 29.87 in 3.0 mi NNW 8.1 mph 16.1 mph N/A Snow Light Snow
3:32 AM 6.8 °F -8.6 °F 1.4 °F 79% 29.89 in 7.0 mi NNW 11.5 mph 19.6 mph N/A Snow Light Snow
3:53 AM 5.0 °F -9.1 °F -0.4 °F 78% 29.91 in 10.0 mi NNW 9.2 mph 18.4 mph N/A   Mostly Cloudy
4:13 AM 3.2 °F -11.3 °F -0.4 °F 85% 29.92 in 10.0 mi NNW 9.2 mph - N/A   Mostly Cloudy
4:32 AM 3.2 °F -11.3 °F -2.2 °F 78% 29.93 in 10.0 mi NNW 9.2 mph - N/A   Mostly Cloudy
4:53 AM 3.2 °F -7.8 °F -2.2 °F 78% 29.95 in 10.0 mi NNW 5.8 mph 17.3 mph N/A   Overcast
5:13 AM 3.2 °F -7.8 °F -2.2 °F 78% 29.96 in 10.0 mi NNW 5.8 mph 16.1 mph N/A   Overcast
5:32 AM 3.2 °F -9.1 °F -2.2 °F 78% 29.98 in 7.0 mi North 6.9 mph - N/A   Overcast
5:53 AM 1.4 °F -8.3 °F -2.2 °F 85% 29.99 in 10.0 mi NNW 4.6 mph - N/A   Mostly Cloudy
6:13 AM 1.4 °F -8.3 °F -2.2 °F 85% 30.00 in 10.0 mi NNW 4.6 mph - N/A   Scattered Clouds
6:33 AM 1.4 °F -9.9 °F -2.2 °F 85% 30.00 in 10.0 mi North 5.8 mph - N/A   Clear
6:52 AM -0.4 °F -12.0 °F -4.0 °F 85% 30.02 in 10.0 mi North 5.8 mph - N/A   Scattered Clouds
7:13 AM -0.4 °F -12.0 °F -4.0 °F 85% 30.03 in 10.0 mi NNW 5.8 mph - N/A   Mostly Cloudy
7:33 AM -0.4 °F -10.4 °F -5.8 °F 78% 30.04 in 10.0 mi North 4.6 mph - N/A   Scattered Clouds
7:52 AM -2.2 °F - -5.8 °F 85% 30.04 in 10.0 mi Calm Calm - N/A   Clear
8:13 AM -2.2 °F -10.4 °F -5.8 °F 85% 30.05 in 10.0 mi North 3.5 mph - N/A   Clear
8:33 AM -2.2 °F -10.4 °F -5.8 °F 85% 30.06 in 10.0 mi NNW 3.5 mph - N/A   Clear
8:53 AM -2.2 °F -10.4 °F -5.8 °F 85% 30.07 in 10.0 mi NNW 3.5 mph - N/A   Clear
9:13 AM -2.2 °F -10.4 °F -5.8 °F 85% 30.08 in 10.0 mi North 3.5 mph - N/A   Clear
9:33 AM -2.2 °F -12.5 °F -5.8 °F 85% 30.08 in 10.0 mi NNE 4.6 mph - N/A   Clear
9:53 AM -0.4 °F -10.4 °F -5.8 °F 78% 30.09 in 10.0 mi NNE 4.6 mph - N/A   Clear
10:13 AM -0.4 °F -10.4 °F -5.8 °F 78% 30.09 in 10.0 mi NNE 4.6 mph - N/A   Clear
10:33 AM -0.4 °F -13.4 °F -7.6 °F 72% 30.10 in 10.0 mi NNE 6.9 mph - N/A   Clear
10:53 AM -0.4 °F -12.0 °F -7.6 °F 72% 30.11 in 7.0 mi NE 5.8 mph - N/A   Clear
11:13 AM -0.4 °F - -7.6 °F 72% 30.12 in 10.0 mi Calm Calm - N/A   Clear
11:33 AM 1.4 °F - -5.8 °F 72% 30.12 in 10.0 mi Calm Calm - N/A   Clear
11:53 AM 1.4 °F - -5.8 °F 72% 30.12 in 10.0 mi Calm Calm - N/A   Clear
12:12 PM 3.2 °F - -5.8 °F 66% 30.12 in 10.0 mi Calm Calm - N/A   Clear
12:33 PM 3.2 °F - -5.8 °F 66% 30.11 in 10.0 mi Calm Calm - N/A   Clear
12:53 PM 3.2 °F -4.2 °F -5.8 °F 66% 30.10 in 10.0 mi ENE 3.5 mph - N/A   Clear
1:12 PM 3.2 °F - -5.8 °F 66% 30.10 in 10.0 mi Calm Calm - N/A   Clear
1:33 PM 3.2 °F -4.2 °F -5.8 °F 66% 30.09 in 10.0 mi NNE 3.5 mph - N/A   Clear
1:53 PM 3.2 °F -6.2 °F -5.8 °F 66% 30.09 in 10.0 mi NNE 4.6 mph - N/A   Clear
2:12 PM 3.2 °F - -5.8 °F 66% 30.08 in 10.0 mi Calm Calm - N/A   Clear
2:33 PM 3.2 °F -7.8 °F -5.8 °F 66% 30.08 in 10.0 mi NE 5.8 mph - N/A   Clear
2:52 PM 3.2 °F - -5.8 °F 66% 30.08 in 10.0 mi Calm Calm - N/A   Clear
3:13 PM 3.2 °F -4.2 °F -4.0 °F 72% 30.08 in 10.0 mi NNE 3.5 mph - N/A   Clear
3:33 PM 3.2 °F -4.2 °F -5.8 °F 66% 30.08 in 10.0 mi NNE 3.5 mph - N/A   Clear
3:52 PM 3.2 °F -4.2 °F -4.0 °F 72% 30.09 in 10.0 mi NNE 3.5 mph - N/A   Clear
4:13 PM 3.2 °F - -4.0 °F 72% 30.10 in 10.0 mi Calm Calm - N/A   Clear
4:33 PM 3.2 °F - -4.0 °F 72% 30.11 in 10.0 mi Calm Calm - N/A   Scattered Clouds
4:53 PM 3.2 °F - -4.0 °F 72% 30.11 in 10.0 mi Calm Calm - N/A   Scattered Clouds
5:12 PM 3.2 °F - -4.0 °F 72% 30.11 in 10.0 mi Calm Calm - N/A   Mostly Cloudy
5:33 PM 3.2 °F - -4.0 °F 72% 30.12 in 10.0 mi Calm Calm - N/A   Mostly Cloudy
5:53 PM 1.4 °F - -4.0 °F 78% 30.12 in 10.0 mi Calm Calm - N/A   Mostly Cloudy
6:12 PM 1.4 °F - -4.0 °F 78% 30.12 in 10.0 mi Calm Calm - N/A   Overcast
6:33 PM 1.4 °F - -4.0 °F 78% 30.13 in 10.0 mi Calm Calm - N/A   Overcast
6:53 PM 1.4 °F - -4.0 °F 78% 30.13 in 10.0 mi Calm Calm - N/A   Overcast
7:12 PM 1.4 °F - -4.0 °F 78% 30.13 in 10.0 mi Calm Calm - N/A   Overcast
7:33 PM 1.4 °F - -4.0 °F 78% 30.14 in 10.0 mi Calm Calm - N/A   Overcast
7:53 PM 1.4 °F - -5.8 °F 72% 30.13 in 10.0 mi Calm Calm - N/A   Overcast
8:13 PM 1.4 °F - -4.0 °F 78% 30.13 in 10.0 mi Calm Calm - N/A   Overcast
8:33 PM 1.4 °F - -4.0 °F 78% 30.12 in 10.0 mi Calm Calm - N/A   Scattered Clouds
8:53 PM 1.4 °F - -4.0 °F 78% 30.11 in 7.0 mi Calm Calm - N/A   Clear
9:13 PM 1.4 °F - -4.0 °F 78% 30.11 in 4.0 mi Calm Calm - N/A Snow Light Snow
9:32 PM 1.4 °F - -4.0 °F 78% 30.10 in 3.0 mi Calm Calm - N/A Snow Light Snow
9:53 PM 1.4 °F - -2.2 °F 85% 30.10 in 3.0 mi Calm Calm - N/A Snow Light Snow
10:12 PM 1.4 °F - -2.2 °F 85% 30.09 in 3.0 mi Calm Calm - N/A Snow Light Snow
10:33 PM 1.4 °F - -2.2 °F 85% 30.08 in 3.0 mi Calm Calm - N/A Snow Light Snow
10:53 PM 1.4 °F - -2.2 °F 85% 30.08 in 3.0 mi Calm Calm - N/A Snow Light Snow
11:12 PM 1.4 °F - -2.2 °F 85% 30.07 in 5.0 mi Calm Calm - N/A Snow Light Snow
11:33 PM 1.4 °F - -2.2 °F 85% 30.07 in 4.0 mi Calm Calm - N/A Snow Light Snow
11:53 PM 1.4 °F - -2.2 °F 85% 30.08 in 2.5 mi Calm Calm - N/A Snow Light Snow